Regional Weather Roundup
Issued by NWS Upton, NY

Current Version | Previous Version | Graphics & Text | Print | Product List | Glossary Off
Versions: 1 2 3 4 5 6 7 8 9 10 11 12 13 14 15 16 17 18 19 20 21 22 23 24 25 26 27 28 29 30 31 32 33 34 35 36 37 38 39 40 41 42 43 44 45 46 47 48 49

293
ASUS41 KOKX 181408
RWROKX

REGIONAL WEATHER ROUNDUP
NATIONAL WEATHER SERVICE NEW YORK NY
1000 AM EDT WED OCT 18 2017

NOTE: "FAIR" INDICATES FEW OR NO CLOUDS BELOW 12,000 FEET WITH NO
SIGNIFICANT WEATHER AND/OR OBSTRUCTIONS TO VISIBILITY.

NYZ071-072-176-178-NJZ106-104-181500-
NEW YORK CITY METRO AREA

CITY           SKY/WX    TMP DP  RH WIND       PRES   REMARKS
Central Park   SUNNY     55  40  56 W3        30.35S HAZE
Bronx Bot Gard   N/A     57  37  47 W7        30.35R
LaGuardia APRT SUNNY     59  39  47 W7        30.32S
Kennedy INTL   MOSUNNY   59  41  51 W8        30.33F
Breezy Point     N/A     55 N/A N/A W8G14       N/A
Newark/Liberty SUNNY     57  40  52 SW5       30.33F
Teterboro      SUNNY     56  41  57 SW3       30.32S
$$

NYZ177-179-078>081-181500-
LONG ISLAND NEW YORK

CITY           SKY/WX    TMP DP  RH WIND       PRES   REMARKS
Jones Beach      N/A     55 N/A N/A W10         N/A
Matinecock PT    N/A     57 N/A N/A W9          N/A
Farmingdale    SUNNY     58  41  53 NW7       30.32S
MacArthur/ISP  MOSUNNY   59  43  55 W5        30.32R
Shirley        SUNNY     62  45  53 W6        30.32S
Mt Sinai Harb    N/A     59 N/A N/A W3          N/A
Westhampton    SUNNY     59  43  55 W7        30.33S
East Hampton   FAIR      59  47  64 NW5       30.31R
Montauk          N/A     61  50  67 W9        30.32R
$$

NYZ052-065-067-181500-
HUDSON VALLEY

CITY           SKY/WX    TMP DP  RH WIND       PRES   REMARKS
White Plains   SUNNY     57  40  52 NW8       30.31S
Larchmont Harb   N/A     55 N/A N/A W6          N/A
Croton On Huds   N/A     57 N/A N/A CALM        N/A
Newburgh       SUNNY     54  43  66 SW7       30.33R
Montgomery     SUNNY     56  43  61 S5        30.31S
Poughkeepsie   SUNNY     54  39  57 SW7       30.31S
Albany         MOSUNNY   52  38  58 S6        30.31R
$$

NJZ001-105-106-008-010-013-015-019>022-104-181500-
NEW JERSEY

CITY           SKY/WX    TMP DP  RH WIND       PRES   REMARKS
Newark/Liberty SUNNY     57  40  52 SW5       30.33F
Teterboro      SUNNY     56  41  57 SW3       30.32S
Caldwell       SUNNY     55  42  61 W3        30.33F
Somerville     SUNNY     53  46  77 CALM      30.33S
Linden         FAIR      55  39  55 CALM      30.34S
Perth Amboy      N/A     54 N/A N/A W8          N/A
Sussex         SUNNY     50  43  77 VRB5      30.33S
Andover          N/A     51  41  68 VRB3      30.34S
Trenton        SUNNY     56  43  61 W5        30.34F
Millville      SUNNY     59  49  69 W9        30.38S
Atlantic City  SUNNY     58  43  57 W7        30.36F
Wrightstown    SUNNY     55  43  62 W3        30.34S
Toms River       N/A     58  42  55 W8        30.35F
Belmar         SUNNY     56  43  61 W8        30.35S
$$

PAZ047>061-062-071-181500-
EASTERN PENNSYLVANIA

CITY           SKY/WX    TMP DP  RH WIND       PRES   REMARKS
Philadelphia   SUNNY     56  39  53 W6        30.37S
Allentown      SUNNY     55  42  61 SW8       30.35S
Scranton       SUNNY     52  41  66 NW3       30.36R
$$

CTZ002-004>006-009-010-012-RIZ004-006-007-MAZ004-011-015-181500-
SOUTHERN NEW ENGLAND
 IN CT

CITY           SKY/WX    TMP DP  RH WIND       PRES   REMARKS
Bradley INTL   MOSUNNY   54  41  61 S5        30.29F
Hartford       SUNNY     57  41  55 SW5       30.30S
Danbury        SUNNY     58  42  55 CALM      30.32R
Wtrbury/Oxford SUNNY     54  40  59 CALM      30.31R
Norwalk Harbor   N/A     54 N/A N/A SW6         N/A
Bridgeport     SUNNY     57  39  51 W6        30.32R
Meriden        SUNNY     54  41  61 VRB3      30.31R
New Haven      SUNNY     55  40  56 W3        30.31S
Chester        FAIR      61  41  48 CALM      30.31R
Groton         SUNNY     59  41  51 W6        30.30S
Wilimantic     SUNNY     52  43  71 CALM      30.31R

 IN RI

CITY           SKY/WX    TMP DP  RH WIND       PRES   REMARKS
Providence     MOSUNNY   58  42  55 W7        30.29S
Block Island   SUNNY     61  50  67 W13       30.31R
Westerly       SUNNY     61  41  47 W6        30.31R
 IN MA

CITY           SKY/WX    TMP DP  RH WIND       PRES   REMARKS
Boston         MOSUNNY   60  41  49 W9        30.26R
Worcester      SUNNY     55  38  52 W14       30.26S
Westfield      SUNNY     51  40  65 SW5       30.28F
Provincetown   SUNNY     59  44  57 W15       30.27R
Nantucket      SUNNY     62  52  69 W18       30.28R
$$

ANZ330-335-338-340-345-350-353-355-181500-
COASTAL MARINE OBSERVATIONS


STATION/POSITION TIME  SKY/WX   TEMP    WIND        PRES    VSBY  WAVE
                                AIR SEA DIR/SP/G                  HT/PER
                 (UTC)          (F)     (DEG/KT/KT) (MB)    (MI)  (FT/S)
NY HARB ENTRANCE 1250            56 65  270/ 12/ 14 1026.3          2/11
20 S FIRE ISLAND 1250            60 63  270/ 17/ 19 1026.6          4/ 5
GREAT SOUTH BAY  1330            57 61  290/  8/ 12   N/A
15 E BARNEGAT LI 1330               66                N/A           3/11
HUDSON CANYON    1250            61 65  290/ 12/ 14 1026.7          3/10
KINGS POINT      1336            57 66  300/  6/  8 1027.5
EXECUTION ROCKS  1345            61     240/  6/ 10   N/A
WESTERN LI SOUND 1249            57     260/ 10/ 14   N/A           1/ 3
CENTRAL LI SOUND 1315            59     290/ 12/ 14   N/A           2
EASTERN LI SOUND NOT AVBL
ROBBINS REEF     1342            53     270/  8/ 11 1027.6
$$


>>>>>>>>>>>>>>>>>>>>>>>>>>>> KEY <<<<<<<<<<<<<<<<<<<<<<<<<<<
>                                                          <
>     SKY/WX - Sky Condition/Present Weather               <
>     TMP    - Temperature in Fahrenheit                   <
>     DP     - Dew Point in Fahrenheit                     <
>     RH     - Relative Humidity in Percent                <
>     WIND   - Direction (from) and Speed in MPH           <
>     PRES   - Mean Sea Level Pressure (inches of Hg)      <
>     WCI    - Wind Chill Index                            <
>     VSB    - VISIBILITY IN MILES                         <
>     HX     - HEAT INDEX                                  <
>     TC     - TEMPERATURE IN CELSIUS                      <
>     VRB    - VARIABLE WIND DIRECTION                     <
>                                                          <
>>>>>>>>>>>>>>>>>>>>>>>>>>>> KEY <<<<<<<<<<<<<<<<<<<<<<<<<<<




USA.gov is the U.S. government's official web portal to all federal, state and local government web resources and services.